| time (UTC) | temp F | wind direction | speed knots | gust knots | rain 1hr in | rain 24hr in | rain mn in | humidity % | barometer mb |
| 20260502163216 | 75 | 130 | 4.3 | 0.0 | 0.00 | 0.00 | 0.00 | 27 | 1019.0 |
| 20260502161939 | 75 | 140 | 4.3 | 0.0 | 0.00 | 0.00 | 0.00 | 25 | |
| 20260502160225 | 75 | 0 | 1.7 | 0.0 | 0.00 | 0.00 | 0.00 | 27 | 1020.0 |
| 20260502151907 | 75 | 140 | 1.7 | 0.0 | 0.00 | 0.00 | 0.00 | 25 | |
| 20260502150218 | 75 | 0 | 1.7 | 0.0 | 0.00 | 0.00 | 0.00 | 25 | 1020.0 |
| 20260502130218 | 75 | 0 | 1.7 | 0.0 | 0.00 | 0.00 | 0.00 | 27 | 1022.0 |
| 20260502123217 | 73 | 0 | 1.7 | 0.0 | 0.00 | 0.00 | 0.00 | 27 | 1022.0 |
| 20260502121943 | 73 | 250 | 4.3 | 0.0 | 0.00 | 0.00 | 0.00 | 29 | |
| 20260502120225 | 72 | 160 | 4.3 | 0.0 | 0.00 | 0.00 | 0.00 | 30 | 1023.0 |
| 20260502113217 | 72 | 290 | 5.2 | 0.0 | 0.00 | 0.00 | 0.00 | 28 | 1023.0 |
| 20260502111942 | 72 | 270 | 4.3 | 0.0 | 0.00 | 0.00 | 0.00 | 30 | |
| 20260502110225 | 70 | 0 | 1.7 | 0.0 | 0.00 | 0.00 | 0.00 | 32 | 1023.0 |
| 20260502103217 | 70 | 80 | 5.2 | 0.0 | 0.00 | 0.00 | 0.00 | 30 | 1024.0 |
| 20260502101942 | 70 | 80 | 4.3 | 0.0 | 0.00 | 0.00 | 0.00 | 28 | |
| 20260502100220 | 70 | 50 | 4.3 | 0.0 | 0.00 | 0.00 | 0.00 | 28 | 1024.0 |
| 20260502090220 | 68 | 0 | 1.7 | 0.0 | 0.00 | 0.00 | 0.00 | 32 | 1025.0 |
| 20260502070227 | 55 | 0 | 1.7 | 0.0 | 0.00 | 0.00 | 0.00 | 58 | 1025.0 |
| 20260502063217 | 52 | 120 | 2.6 | 0.0 | 0.00 | 0.00 | 0.00 | 62 | 1025.0 |
| 20260502061942 | 48 | 130 | 1.7 | 0.0 | 0.00 | 0.00 | 0.00 | 70 | |
| 20260502060220 | 48 | 100 | 2.6 | 0.0 | 0.00 | 0.00 | 0.00 | 70 | 1025.0 |
| 20260502053210 | 43 | 110 | 1.7 | 0.0 | 0.00 | 0.00 | 0.00 | 81 | 1025.0 |
| 20260502051943 | 43 | 120 | 1.7 | 0.0 | 0.00 | 0.00 | 0.00 | 75 | |
| 20260502050218 | 41 | 0 | 0.9 | 0.0 | 0.00 | 0.00 | 0.00 | 80 | 1025.0 |
| 20260502043209 | 37 | 200 | 0.9 | 0.0 | 0.00 | 0.00 | 0.00 | 86 | 1025.0 |
| 20260502041944 | 36 | 0 | 0.0 | 0.0 | 0.00 | 0.00 | 0.00 | 86 | |
| 20260502040220 | 36 | 0 | 0.0 | 0.0 | 0.00 | 0.00 | 0.00 | 93 | 1025.0 |
| 20260502033216 | 37 | 220 | 0.9 | 0.0 | 0.00 | 0.00 | 0.00 | 86 | 1025.0 |
| 20260502031943 | 37 | 220 | 1.7 | 0.0 | 0.00 | 0.00 | 0.00 | 86 | |
| 20260502030219 | 37 | 210 | 0.9 | 0.0 | 0.00 | 0.00 | 0.00 | 86 | 1025.0 |
| 20260502023209 | 37 | 0 | 0.0 | 0.0 | 0.00 | 0.00 | 0.00 | 86 | 1025.0 |
| 20260502021942 | 39 | 0 | 0.0 | 0.0 | 0.00 | 0.00 | 0.00 | 86 | |
| 20260502020219 | 37 | 0 | 0.9 | 0.0 | 0.00 | 0.00 | 0.00 | 86 | 1025.0 |
| 20260502013217 | 39 | 90 | 1.7 | 0.0 | 0.00 | 0.00 | 0.00 | 86 | 1025.0 |
| 20260502011942 | 41 | 90 | 1.7 | 0.0 | 0.00 | 0.00 | 0.00 | 75 | |
| 20260502010218 | 39 | 0 | 0.9 | 0.0 | 0.00 | 0.00 | 0.00 | 86 | 1025.0 |
| 20260502003210 | 41 | 0 | 0.0 | 0.0 | 0.00 | 0.00 | 0.00 | 75 | 1025.0 |
| 20260502001941 | 43 | 140 | 1.7 | 0.0 | 0.00 | 0.00 | 0.00 | 75 | |
| 20260502000218 | 41 | 0 | 0.9 | 0.0 | 0.00 | 0.00 | 0.00 | 75 | 1025.0 |
| 20260501233210 | 45 | 0 | 0.0 | 0.0 | 0.00 | 0.00 | 0.00 | 70 | 1026.0 |
| 20260501231943 | 45 | 0 | 0.0 | 0.0 | 0.00 | 0.00 | 0.00 | 70 | |
| 20260501230225 | 45 | 0 | 0.0 | 0.0 | 0.00 | 0.00 | 0.00 | 75 | 1026.0 |
| 20260501223210 | 45 | 0 | 1.7 | 0.0 | 0.00 | 0.00 | 0.00 | 75 | 1026.0 |
| 20260501222042 | 46 | 210 | 1.7 | 0.0 | 0.00 | 0.00 | 0.00 | 70 | |
| 20260501220225 | 46 | 0 | 0.9 | 0.0 | 0.00 | 0.00 | 0.00 | 70 | 1026.0 |
| 20260501213209 | 48 | 0 | 1.7 | 0.0 | 0.00 | 0.00 | 0.00 | 66 | 1026.0 |
| 20260501211943 | 48 | 130 | 1.7 | 0.0 | 0.00 | 0.00 | 0.00 | 66 | |
| 20260501210217 | 50 | 210 | 2.6 | 0.0 | 0.00 | 0.00 | 0.00 | 61 | 1025.0 |
| 20260501203209 | 50 | 200 | 5.2 | 0.0 | 0.00 | 0.00 | 0.00 | 66 | 1025.0 |
| 20260501201943 | 52 | 200 | 6.1 | 0.0 | 0.00 | 0.00 | 0.00 | 62 | |
| 20260501200218 | 54 | 0 | 1.7 | 0.0 | 0.00 | 0.00 | 0.00 | 54 | 1025.0 |
| 20260501193210 | 57 | 0 | 0.0 | 0.0 | 0.00 | 0.00 | 0.00 | 47 | 1025.0 |
| 20260501191943 | 61 | 0 | 0.0 | 0.0 | 0.00 | 0.00 | 0.00 | 38 | |
| 20260501190219 | 61 | 0 | 0.0 | 0.0 | 0.00 | 0.00 | 0.00 | 41 | 1025.0 |
| 20260501183216 | 68 | 0 | 1.7 | 0.0 | 0.00 | 0.00 | 0.00 | 28 | 1025.0 |
| 20260501181942 | 68 | 20 | 1.7 | 0.0 | 0.00 | 0.00 | 0.00 | 28 | |
| 20260501180219 | 68 | 10 | 4.3 | 0.0 | 0.00 | 0.00 | 0.00 | 28 | 1025.0 |
| 20260501173216 | 70 | 30 | 2.6 | 0.0 | 0.00 | 0.00 | 0.00 | 28 | 1024.0 |
| 20260501171942 | 70 | 30 | 4.3 | 0.0 | 0.00 | 0.00 | 0.00 | 28 | |
| 20260501170219 | 70 | 40 | 5.2 | 0.0 | 0.00 | 0.00 | 0.00 | 28 | 1024.0 |